Left ArrowRight Arrow

44.31136, -96.79839

Hourly Observations for January 10, 2018

Temp ( °F °C ) Dew Point ( °F °C ) Humidity (%) Winds ( mph kmh ) Pressure ( in mb ) Visibility ( mi km ) Precip ( " mm )
12:56 am 00:56 Clear 34 1.1 29 -1.7 82 82 S 17 28 29.60 1003 10 16 0.00 0.00
2:56 am 02:56 Clear 36 2.2 30 -1.1 79 79 S 18 30 29.57 1001 10 16 0.00 0.00
3:56 am 03:56 Clear 35 1.7 30 -1.1 82 82 S 17 28 29.55 1001 10 16 0.00 0.00
4:56 am 04:56 Clear 35 1.7 30 -1.1 82 82 S 16 26 29.54 1000 10 16 0.00 0.00
5:56 am 05:56 Clear 34 1.1 30 -1.1 85 85 S 15 24 29.54 1000 10 16 0.00 0.00
6:56 am 06:56 Clear 33 0.6 30 -1.1 89 89 S 14 22 29.54 1000 10 16 0.00 0.00
7:56 am 07:56 Clear 33 0.6 30 -1.1 89 89 S 14 22 29.54 1000 10 16 0.00 0.00
8:56 am 08:56 Sunny 34 1.1 30 -1.1 85 85 SSE 7 11 29.55 1001 9 14 0.00 0.00
9:56 am 09:56 Sunny 34 1.1 31 -0.6 89 89 SSE 8 13 29.57 1001 8 13 0.00 0.00
10:56 am 10:56 Sunny 36 2.2 32 0 86 86 S 12 19 29.55 1001 7 11 0.00 0.00
11:23 am 11:23 Mostly Sunny 36 2 32 0 87 87 S 12 19 29.53 1000 7 11 0.00 0.00
11:56 am 11:56 Partly Cloudy with Mist and Fog 36 2.2 33 0.6 89 89 S 13 20 29.53 1000 6 10 0.00 0.00
12:14 pm 12:14 Mostly Cloudy with Mist and Fog 37 3 34 1 87 87 S 12 19 29.50 999 6 10 0.00 0.00
12:56 pm 12:56 Cloudy with Mist and Fog 35 1.7 33 0.6 93 93 S 14 22 29.50 999 4 6 0.00 0.00
1:05 pm 13:05 Cloudy with Mist and Fog 36 2 34 1 93 93 S 13 20 29.47 998 4 6 0.00 0.00
1:56 pm 13:56 Cloudy with Mist and Fog 37 2.8 33 0.6 86 86 SW 6 9 29.48 998 5 8 0.00 0.00
2:56 pm 14:56 Cloudy with Mist and Fog 35 1.7 33 0.6 93 93 SSE 6 9 29.48 998 4 6 0.00 0.00
4:04 pm 16:04 Cloudy with Mist and Fog 36 2 34 1 93 93 Calm 29.50 999 3 4 0.00 0.00
4:56 pm 16:56 Cloudy with Mist and Fog 35 1.7 33 0.6 93 93 Calm 29.54 1000 3 4 0.00 0.00
5:03 pm 17:03 Cloudy with Mist and Fog 36 2 34 1 93 93 Calm 29.53 1000 2 3 0.00 0.00
5:39 pm 17:39 Cloudy with Mist and Fog 34 1 34 1 100 100 Calm 29.53 1000 3 5 0.00 0.00
5:56 pm 17:56 Cloudy with Mist and Fog 35 1.7 33 0.6 93 93 Calm 29.57 1002 4 6 0.00 0.00
6:52 pm 18:52 Cloudy with Mist and Fog 34 1 34 1 100 100 NNW 6 9 29.56 1001 2 3 0.00 0.00
6:56 pm 18:56 Cloudy with Mist and Fog 34 1.1 33 0.6 97 97 N 6 9 29.59 1002 2 3 0.00 0.00
7:17 pm 19:17 Cloudy with Mist and Fog 34 1 34 1 100 100 N 12 19 29.56 1001 3 5 0.00 0.00
7:33 pm 19:33 Cloudy 34 1 30 -1 87 87 N 13 20 29.59 1002 8 13 0.00 0.00
7:56 pm 19:56 Cloudy with Mist and Fog 32 0 30 -1.1 92 92 N 14 22 29.66 1004 6 10 0.00 0.00
8:06 pm 20:06 Cloudy with Mist and Fog 30 -1 28 -2 93 93 N 16 26 29.68 1005 2 3 0.00 0.00
8:10 pm 20:10 Cloudy with Mist and Fog 30 -1 28 -2 93 93 N 18 30 29.68 1005 2 2 0.00 0.00
8:15 pm 20:15 Windy with Snow Likely 30 -1 28 -2 93 93 N 20 31 29.65 1004 1 2 0.00 0.03
8:23 pm 20:23 Windy with Snow Likely 28 -2 28 -2 100 100 N 21 33 29.65 1004 1 2 0.00 0.03
8:34 pm 20:34 Windy with Snow Likely 28 -2 27 -3 93 93 NNW 23 37 29.68 1005 1 2 0.00 0.03
8:51 pm 20:51 Cloudy with Mist and Fog 25 -4 25 -4 100 100 NNW 18 30 29.71 1006 3 5 0.00 0.03
8:56 pm 20:56 Cloudy with Mist and Fog 25 -3.9 24 -4.4 96 96 NNW 25 41 29.68 1005 4 6 0.00 0.03
9:23 pm 21:23 Cloudy 23 -5 19 -7 86 86 NNW 20 31 29.74 1007 10 16 0.00 0.00
9:39 pm 21:39 Cloudy 21 -6 18 -8 86 86 NNW 23 37 29.74 1007 10 16 0.00 0.00
9:56 pm 21:56 Windy with Snow Likely 20 -6.7 16 -8.9 85 85 NNW 29 46 29.73 1007 10 16 0.00 0.03
10:20 pm 22:20 Windy with Snow Likely 19 -7 14 -10 79 79 N 26 43 29.80 1009 9 14 0.00 0.03
10:56 pm 22:56 Windy with Snow Likely 17 -8.3 13 -10.6 84 84 NNW 22 35 29.77 1008 7 11 0.00 0.03
11:56 pm 23:56 Windy with Snow Likely 14 -10 10 -12.2 84 84 NNW 21 33 29.82 1010 5 8 0.00 0.03

Powered by Vaisala Xweather